QPF
0.09 0.08 0.10 0.06 0.05 0.06 0.06 0.08 0.11 0.10 0.09 0.08 0.08 0.13 0.17 0.20 0.21 0.20 0.19 0.19 0.19 0.19 0.18 0.18 0.18 0.19 0.15 0.11 0.09 0.07 0.07 0.07 0.07 0.09 0.06 0.07 0.07 0.09 0.11 0.09 0.07 0.05 0.07
0.07 0.07 0.06 0.04 0.03 0.05 0.04 0.06 0.07 0.07 0.07 0.06 0.09 0.14 0.19 0.23 0.25 0.26 0.27 0.26 0.27 0.24 0.21 0.18 0.18 0.19 0.15 0.12 0.09 0.07 0.07 0.06 0.06 0.08 0.08 0.09 0.10 0.10 0.11 0.11 0.08 0.05 0.07
0.04 0.05 0.04 0.03 0.02 0.03 0.03 0.05 0.07 0.07 0.07 0.08 0.10 0.13 0.14 0.17 0.23 0.27 0.29 0.27 0.24 0.18 0.14 0.13 0.14 0.13 0.12 0.11 0.10 0.08 0.08 0.10 0.10 0.07 0.07 0.05 0.07 0.09 0.09 0.09 0.07 0.05 0.06
0.02 0.03 0.03 0.03 0.01 0.01 0.02 0.05 0.07 0.07 0.09 0.13 0.12 0.11 0.09 0.12 0.15 0.15 0.13 0.13 0.11 0.09 0.09 0.08 0.06 0.06 0.07 0.09 0.11 0.11 0.09 0.09 0.09 0.06 0.03 0.02 0.04 0.09 0.09 0.08 0.05 0.05 0.05
0.02 0.03 0.03 0.02 0.02 0.01 0.01 0.03 0.04 0.03 0.04 0.09 0.09 0.07 0.07 0.08 0.09 0.10 0.08 0.07 0.07 0.07 0.07 0.05 0.05 0.05 0.05 0.09 0.12 0.14 0.13 0.10 0.09 0.05 0.02 0.02 0.04 0.10 0.09 0.07 0.05 0.05 0.04
0.01 0.03 0.03 0.02 0.02 0.02 0.02 0.02 0.02 0.03 0.04 0.05 0.06 0.06 0.08 0.11 0.12 0.08 0.06 0.05 0.05 0.04 0.06 0.07 0.07 0.06 0.06 0.08 0.10 0.14 0.15 0.10 0.07 0.03 0.03 0.02 0.04 0.08 0.08 0.06 0.05 0.04 0.03
0.01 0.03 0.03 0.03 0.02 0.02 0.02 0.03 0.02 0.02 0.02 0.03 0.04 0.08 0.13 0.14 0.11 0.07 0.05 0.04 0.04 0.03 0.04 0.06 0.07 0.06 0.06 0.07 0.11 0.16 0.12 0.09 0.04 0.02 0.02 0.02 0.04 0.06 0.05 0.04 0.04 0.04 0.03
0.01 0.01 0.02 0.03 0.02 0.02 0.02 0.03 0.03 0.02 0.02 0.02 0.04 0.06 0.07 0.07 0.05 0.04 0.03 0.03 0.02 0.02 0.03 0.03 0.05 0.05 0.06 0.07 0.12 0.13 0.11 0.08 0.02 0.01 0.01 0.01 0.04 0.05 0.04 0.04 0.04 0.04 0.03
0.01 0.01 0.01 0.01 0.02 0.02 0.02 0.02 0.02 0.02 0.02 0.02 0.02 0.03 0.03 0.04 0.03 0.03 0.03 0.03 0.03 0.02 0.02 0.03 0.03 0.05 0.06 0.08 0.09 0.08 0.08 0.07 0.02 0.01 0.01 0.01 0.04 0.06 0.05 0.03 0.03 0.04 0.03
0.01 0.01 0.00 0.00 0.01 0.02 0.02 0.02 0.02 0.02 0.02 0.02 0.02 0.03 0.03 0.04 0.04 0.02 0.03 0.04 0.03 0.01 0.02 0.03 0.04 0.07 0.10 0.13 0.14 0.12 0.09 0.07 0.03 0.01 0.01 0.02 0.03 0.05 0.05 0.03 0.03 0.03 0.03
0.01 0.01 0.00 0.00 0.01 0.01 0.01 0.01 0.01 0.01 0.01 0.01 0.01 0.02 0.01 0.00 0.01 0.01 0.02 0.03 0.03 0.02 0.02 0.04 0.05 0.11 0.14 0.13 0.15 0.13 0.09 0.05 0.03 0.01 0.01 0.01 0.02 0.04 0.04 0.03 0.02 0.03 0.03
0.00 0.00 0.00 0.00 0.00 0.01 0.01 0.01 0.01 0.01 0.00 0.00 0.00 0.00 0.00 0.00 0.00 0.00 0.01 0.03 0.02 0.02 0.03 0.04 0.07 0.10 0.09 0.11 0.12 0.10 0.07 0.05 0.03 0.02 0.01 0.02 0.02 0.03 0.05 0.04 0.03 0.03 0.04
0.00 0.00 0.00 0.00 0.00 0.01 0.01 0.01 0.01 0.01 0.00 0.00 0.00 0.00 0.00 0.00 0.00 0.00 0.01 0.01 0.01 0.01 0.02 0.03 0.06 0.07 0.08 0.10 0.10 0.08 0.06 0.04 0.02 0.02 0.02 0.03 0.03 0.03 0.05 0.05 0.04 0.04 0.06
0.01 0.01 0.01 0.00 0.00 0.01 0.01 0.01 0.01 0.01 0.01 0.01 0.00 0.00 0.00 0.00 0.00 0.00 0.01 0.00 0.00 0.01 0.01 0.02 0.01 0.03 0.06 0.09 0.09 0.07 0.05 0.03 0.02 0.02 0.03 0.04 0.05 0.04 0.05 0.05 0.05 0.05 0.10
0.01 0.01 0.00 0.00 0.00 0.01 0.02 0.02 0.01 0.01 0.01 0.01 0.01 0.01 0.01 0.01 0.01 0.01 0.01 0.01 0.01 0.01 0.01 0.01 0.01 0.03 0.06 0.08 0.08 0.06 0.04 0.05 0.03 0.03 0.03 0.04 0.06 0.06 0.06 0.06 0.05 0.07 0.13
0.00 0.00 0.00 0.00 0.00 0.01 0.02 0.03 0.02 0.01 0.01 0.01 0.01 0.02 0.01 0.01 0.01 0.01 0.01 0.02 0.01 0.01 0.01 0.01 0.02 0.04 0.05 0.05 0.06 0.07 0.06 0.07 0.04 0.03 0.03 0.04 0.06 0.07 0.07 0.08 0.07 0.11 0.17
0.00 0.00 0.00 0.01 0.01 0.01 0.02 0.02 0.02 0.03 0.02 0.02 0.02 0.03 0.03 0.02 0.02 0.02 0.03 0.03 0.02 0.02 0.02 0.02 0.03 0.04 0.03 0.03 0.05 0.06 0.06 0.07 0.06 0.06 0.04 0.03 0.04 0.08 0.11 0.12 0.17 0.15 0.15
0.00 0.00 0.01 0.01 0.02 0.02 0.02 0.02 0.02 0.02 0.02 0.02 0.03 0.03 0.03 0.03 0.04 0.05 0.04 0.03 0.03 0.02 0.03 0.04 0.04 0.03 0.03 0.04 0.04 0.04 0.06 0.06 0.06 0.06 0.05 0.04 0.04 0.04 0.11 0.19 0.18 0.13 0.13
0.00 0.01 0.01 0.03 0.04 0.04 0.04 0.02 0.01 0.02 0.02 0.02 0.03 0.03 0.03 0.04 0.06 0.07 0.05 0.04 0.03 0.03 0.04 0.04 0.04 0.03 0.04 0.05 0.05 0.05 0.06 0.05 0.06 0.06 0.04 0.03 0.03 0.03 0.08 0.14 0.16 0.14 0.13
0.01 0.02 0.04 0.07 0.07 0.04 0.03 0.03 0.02 0.02 0.03 0.04 0.04 0.04 0.04 0.04 0.06 0.06 0.05 0.06 0.05 0.04 0.05 0.05 0.04 0.04 0.04 0.04 0.05 0.07 0.07 0.05 0.05 0.04 0.02 0.02 0.03 0.04 0.07 0.07 0.08 0.10 0.11
0.05 0.09 0.09 0.08 0.06 0.04 0.03 0.04 0.03 0.03 0.05 0.06 0.06 0.05 0.04 0.04 0.04 0.04 0.04 0.04 0.03 0.03 0.04 0.05 0.03 0.03 0.03 0.02 0.03 0.05 0.06 0.04 0.03 0.03 0.04 0.04 0.05 0.05 0.07 0.07 0.06 0.05 0.06
0.09 0.12 0.11 0.09 0.06 0.04 0.05 0.05 0.05 0.07 0.08 0.07 0.07 0.06 0.05 0.04 0.04 0.04 0.05 0.04 0.03 0.03 0.03 0.03 0.02 0.02 0.02 0.01 0.01 0.02 0.03 0.03 0.02 0.03 0.04 0.03 0.03 0.04 0.05 0.05 0.06 0.04 0.03
0.06 0.07 0.08 0.08 0.07 0.06 0.06 0.06 0.07 0.07 0.06 0.06 0.06 0.06 0.07 0.07 0.06 0.06 0.06 0.03 0.03 0.03 0.02 0.02 0.02 0.03 0.02 0.02 0.02 0.04 0.04 0.02 0.02 0.02 0.03 0.03 0.03 0.03 0.03 0.03 0.06 0.05 0.03
0.03 0.03 0.03 0.08 0.08 0.06 0.06 0.06 0.07 0.10 0.11 0.07 0.07 0.08 0.09 0.10 0.09 0.08 0.07 0.05 0.03 0.04 0.02 0.01 0.02 0.03 0.03 0.03 0.03 0.05 0.06 0.04 0.03 0.02 0.02 0.01 0.01 0.02 0.03 0.03 0.04 0.03 0.03
0.02 0.03 0.03 0.05 0.06 0.05 0.05 0.07 0.09 0.11 0.09 0.05 0.04 0.04 0.05 0.07 0.07 0.08 0.07 0.07 0.07 0.06 0.05 0.03 0.03 0.03 0.04 0.04 0.05 0.05 0.06 0.06 0.06 0.05 0.04 0.02 0.01 0.02 0.02 0.03 0.03 0.02 0.02
0.02 0.02 0.03 0.03 0.04 0.06 0.06 0.06 0.05 0.04 0.03 0.02 0.02 0.02 0.04 0.05 0.05 0.06 0.07 0.09 0.09 0.07 0.05 0.04 0.05 0.07 0.08 0.07 0.07 0.07 0.09 0.08 0.06 0.06 0.05 0.04 0.04 0.03 0.03 0.02 0.01 0.01 0.02
MSLP
1011.59 1011.07 1010.64 1010.36 1010.22 1010.21 1010.28 1010.37 1010.43 1010.44 1010.39 1010.31 1010.23 1010.20 1010.24 1010.35 1010.53 1010.76 1011.00 1011.24 1011.46 1011.68 1011.91 1012.18 1012.49 1012.86 1013.25 1013.64 1013.99 1014.30 1014.55 1014.74 1014.91 1015.09 1015.30 1015.56 1015.88 1016.22 1016.56 1016.88 1017.15 1017.37 1017.56
1011.69 1011.25 1010.90 1010.68 1010.59 1010.62 1010.71 1010.81 1010.88 1010.89 1010.85 1010.78 1010.73 1010.73 1010.80 1010.94 1011.14 1011.37 1011.60 1011.81 1012.00 1012.18 1012.37 1012.60 1012.89 1013.23 1013.60 1013.97 1014.31 1014.61 1014.85 1015.05 1015.23 1015.42 1015.64 1015.91 1016.22 1016.56 1016.89 1017.19 1017.45 1017.66 1017.85
1011.72 1011.36 1011.07 1010.90 1010.87 1010.93 1011.06 1011.18 1011.27 1011.30 1011.28 1011.24 1011.22 1011.25 1011.34 1011.50 1011.71 1011.93 1012.13 1012.31 1012.46 1012.60 1012.76 1012.96 1013.22 1013.53 1013.88 1014.24 1014.58 1014.88 1015.14 1015.36 1015.56 1015.78 1016.02 1016.31 1016.62 1016.94 1017.25 1017.53 1017.77 1017.97 1018.16
1011.71 1011.41 1011.18 1011.07 1011.08 1011.19 1011.35 1011.50 1011.62 1011.67 1011.68 1011.67 1011.68 1011.73 1011.85 1012.02 1012.22 1012.42 1012.60 1012.74 1012.86 1012.97 1013.10 1013.27 1013.51 1013.81 1014.15 1014.50 1014.84 1015.16 1015.43 1015.68 1015.92 1016.17 1016.44 1016.74 1017.05 1017.36 1017.65 1017.90 1018.12 1018.31 1018.49
1011.72 1011.46 1011.28 1011.21 1011.27 1011.42 1011.62 1011.80 1011.94 1012.03 1012.06 1012.07 1012.10 1012.17 1012.30 1012.47 1012.67 1012.85 1013.01 1013.13 1013.23 1013.32 1013.43 1013.60 1013.82 1014.11 1014.44 1014.79 1015.13 1015.46 1015.75 1016.03 1016.30 1016.59 1016.88 1017.19 1017.50 1017.80 1018.06 1018.29 1018.48 1018.66 1018.83
1011.76 1011.55 1011.41 1011.39 1011.49 1011.67 1011.89 1012.10 1012.26 1012.35 1012.40 1012.43 1012.48 1012.57 1012.70 1012.88 1013.06 1013.24 1013.39 1013.50 1013.59 1013.67 1013.79 1013.95 1014.17 1014.45 1014.78 1015.12 1015.46 1015.79 1016.10 1016.40 1016.70 1017.01 1017.32 1017.64 1017.95 1018.23 1018.47 1018.67 1018.84 1019.00 1019.17
1011.88 1011.71 1011.61 1011.63 1011.76 1011.97 1012.20 1012.41 1012.56 1012.66 1012.71 1012.75 1012.81 1012.91 1013.06 1013.24 1013.43 1013.61 1013.75 1013.87 1013.96 1014.05 1014.17 1014.34 1014.56 1014.84 1015.16 1015.49 1015.82 1016.14 1016.46 1016.76 1017.08 1017.40 1017.73 1018.05 1018.35 1018.62 1018.84 1019.02 1019.17 1019.31 1019.47
1012.07 1011.94 1011.89 1011.94 1012.10 1012.32 1012.54 1012.73 1012.87 1012.96 1013.00 1013.05 1013.12 1013.24 1013.40 1013.59 1013.79 1013.97 1014.12 1014.24 1014.34 1014.44 1014.57 1014.75 1014.98 1015.25 1015.56 1015.87 1016.19 1016.49 1016.79 1017.09 1017.40 1017.73 1018.06 1018.38 1018.68 1018.93 1019.14 1019.30 1019.43 1019.56 1019.72
1012.31 1012.23 1012.23 1012.32 1012.50 1012.71 1012.92 1013.08 1013.19 1013.25 1013.29 1013.34 1013.42 1013.56 1013.74 1013.95 1014.16 1014.35 1014.50 1014.63 1014.73 1014.84 1014.98 1015.16 1015.39 1015.65 1015.94 1016.23 1016.52 1016.79 1017.07 1017.36 1017.66 1017.98 1018.30 1018.62 1018.91 1019.16 1019.35 1019.50 1019.62 1019.75 1019.90
1012.56 1012.54 1012.60 1012.74 1012.93 1013.13 1013.31 1013.43 1013.51 1013.54 1013.57 1013.63 1013.74 1013.90 1014.11 1014.34 1014.57 1014.76 1014.91 1015.02 1015.12 1015.22 1015.36 1015.53 1015.75 1015.99 1016.26 1016.53 1016.78 1017.03 1017.28 1017.54 1017.82 1018.13 1018.45 1018.76 1019.05 1019.29 1019.48 1019.62 1019.73 1019.85 1020.01
1012.77 1012.82 1012.95 1013.14 1013.34 1013.54 1013.68 1013.77 1013.81 1013.83 1013.86 1013.93 1014.07 1014.27 1014.51 1014.76 1015.00 1015.19 1015.33 1015.42 1015.50 1015.58 1015.69 1015.84 1016.04 1016.27 1016.51 1016.75 1016.98 1017.19 1017.41 1017.65 1017.91 1018.20 1018.51 1018.82 1019.10 1019.34 1019.53 1019.68 1019.79 1019.91 1020.06
1012.91 1013.05 1013.25 1013.48 1013.70 1013.89 1014.01 1014.06 1014.08 1014.08 1014.12 1014.22 1014.40 1014.64 1014.92 1015.20 1015.44 1015.62 1015.74 1015.81 1015.85 1015.90 1015.98 1016.10 1016.27 1016.48 1016.69 1016.91 1017.11 1017.30 1017.49 1017.70 1017.94 1018.21 1018.51 1018.81 1019.10 1019.35 1019.55 1019.70 1019.82 1019.94 1020.08
1012.97 1013.20 1013.46 1013.73 1013.97 1014.14 1014.24 1014.28 1014.28 1014.29 1014.35 1014.49 1014.70 1014.99 1015.30 1015.60 1015.85 1016.02 1016.12 1016.15 1016.16 1016.17 1016.22 1016.31 1016.46 1016.64 1016.83 1017.03 1017.21 1017.38 1017.54 1017.73 1017.95 1018.20 1018.49 1018.79 1019.08 1019.33 1019.55 1019.71 1019.84 1019.96 1020.09
1012.96 1013.25 1013.57 1013.87 1014.12 1014.29 1014.37 1014.40 1014.40 1014.43 1014.51 1014.69 1014.95 1015.27 1015.61 1015.93 1016.18 1016.35 1016.43 1016.44 1016.42 1016.41 1016.43 1016.50 1016.62 1016.78 1016.97 1017.15 1017.31 1017.46 1017.61 1017.77 1017.96 1018.20 1018.46 1018.75 1019.04 1019.31 1019.54 1019.72 1019.87 1019.99 1020.12
1012.88 1013.22 1013.57 1013.88 1014.14 1014.30 1014.39 1014.42 1014.44 1014.48 1014.60 1014.81 1015.11 1015.46 1015.82 1016.15 1016.41 1016.57 1016.65 1016.65 1016.63 1016.60 1016.61 1016.67 1016.79 1016.94 1017.12 1017.29 1017.44 1017.58 1017.71 1017.85 1018.01 1018.22 1018.46 1018.73 1019.01 1019.28 1019.52 1019.72 1019.88 1020.02 1020.14
1012.75 1013.10 1013.46 1013.78 1014.03 1014.21 1014.30 1014.35 1014.40 1014.48 1014.62 1014.86 1015.17 1015.53 1015.89 1016.22 1016.49 1016.66 1016.75 1016.77 1016.76 1016.75 1016.78 1016.85 1016.97 1017.13 1017.30 1017.47 1017.62 1017.74 1017.85 1017.97 1018.10 1018.26 1018.47 1018.71 1018.96 1019.22 1019.47 1019.68 1019.86 1020.02 1020.15
1012.57 1012.92 1013.27 1013.58 1013.84 1014.02 1014.15 1014.23 1014.31 1014.43 1014.60 1014.84 1015.15 1015.49 1015.84 1016.17 1016.43 1016.61 1016.73 1016.79 1016.82 1016.86 1016.92 1017.02 1017.16 1017.33 1017.51 1017.68 1017.83 1017.94 1018.03 1018.12 1018.21 1018.33 1018.48 1018.67 1018.89 1019.12 1019.36 1019.58 1019.77 1019.94 1020.09
1012.36 1012.69 1013.02 1013.32 1013.58 1013.80 1013.96 1014.10 1014.23 1014.38 1014.56 1014.80 1015.08 1015.39 1015.70 1016.00 1016.25 1016.46 1016.61 1016.72 1016.82 1016.91 1017.03 1017.18 1017.35 1017.54 1017.73 1017.90 1018.04 1018.15 1018.23 1018.28 1018.34 1018.40 1018.50 1018.62 1018.78 1018.97 1019.17 1019.38 1019.58 1019.76 1019.93
1012.11 1012.41 1012.71 1013.02 1013.30 1013.55 1013.78 1013.98 1014.17 1014.36 1014.55 1014.76 1015.00 1015.25 1015.51 1015.76 1016.00 1016.22 1016.41 1016.59 1016.76 1016.93 1017.11 1017.30 1017.51 1017.72 1017.92 1018.10 1018.24 1018.34 1018.41 1018.44 1018.46 1018.47 1018.50 1018.55 1018.63 1018.75 1018.90 1019.08 1019.26 1019.45 1019.64
1011.82 1012.09 1012.38 1012.69 1013.01 1013.32 1013.62 1013.90 1014.15 1014.38 1014.58 1014.76 1014.93 1015.11 1015.30 1015.50 1015.72 1015.95 1016.18 1016.42 1016.66 1016.91 1017.15 1017.39 1017.63 1017.85 1018.06 1018.24 1018.39 1018.50 1018.56 1018.58 1018.57 1018.54 1018.50 1018.47 1018.46 1018.50 1018.57 1018.69 1018.84 1019.01 1019.20
1011.49 1011.75 1012.04 1012.36 1012.73 1013.11 1013.49 1013.86 1014.17 1014.43 1014.63 1014.78 1014.89 1014.99 1015.11 1015.25 1015.44 1015.67 1015.94 1016.24 1016.55 1016.85 1017.15 1017.42 1017.68 1017.91 1018.12 1018.31 1018.47 1018.59 1018.66 1018.69 1018.66 1018.60 1018.50 1018.39 1018.30 1018.23 1018.22 1018.25 1018.35 1018.48 1018.66
1011.13 1011.39 1011.69 1012.05 1012.46 1012.91 1013.37 1013.81 1014.19 1014.49 1014.68 1014.80 1014.85 1014.88 1014.92 1015.01 1015.17 1015.41 1015.71 1016.05 1016.41 1016.76 1017.09 1017.39 1017.65 1017.88 1018.09 1018.28 1018.45 1018.59 1018.69 1018.74 1018.73 1018.65 1018.51 1018.34 1018.16 1018.00 1017.88 1017.82 1017.83 1017.91 1018.05
1010.77 1011.04 1011.36 1011.74 1012.19 1012.70 1013.23 1013.73 1014.16 1014.48 1014.68 1014.76 1014.76 1014.74 1014.72 1014.77 1014.91 1015.15 1015.47 1015.85 1016.25 1016.63 1016.97 1017.27 1017.53 1017.74 1017.95 1018.14 1018.33 1018.50 1018.64 1018.73 1018.75 1018.68 1018.54 1018.32 1018.08 1017.82 1017.60 1017.45 1017.36 1017.36 1017.43
1010.45 1010.73 1011.06 1011.45 1011.93 1012.47 1013.04 1013.58 1014.04 1014.37 1014.56 1014.62 1014.59 1014.52 1014.47 1014.50 1014.63 1014.87 1015.21 1015.61 1016.03 1016.42 1016.77 1017.05 1017.28 1017.48 1017.67 1017.86 1018.07 1018.28 1018.47 1018.62 1018.69 1018.66 1018.53 1018.31 1018.02 1017.70 1017.40 1017.15 1016.97 1016.89 1016.88
1010.19 1010.49 1010.81 1011.20 1011.67 1012.21 1012.78 1013.33 1013.79 1014.13 1014.31 1014.35 1014.30 1014.20 1014.13 1014.15 1014.28 1014.53 1014.88 1015.30 1015.72 1016.12 1016.45 1016.71 1016.91 1017.08 1017.25 1017.44 1017.67 1017.92 1018.17 1018.38 1018.52 1018.55 1018.46 1018.25 1017.96 1017.61 1017.25 1016.93 1016.67 1016.51 1016.43
1010.05 1010.34 1010.64 1010.99 1011.43 1011.93 1012.47 1012.99 1013.43 1013.75 1013.92 1013.94 1013.88 1013.77 1013.70 1013.71 1013.84 1014.10 1014.46 1014.88 1015.31 1015.69 1016.00 1016.23 1016.40 1016.54 1016.69 1016.88 1017.12 1017.40 1017.70 1017.99 1018.20 1018.30 1018.27 1018.11 1017.83 1017.49 1017.11 1016.76 1016.45 1016.23 1016.08
Thickness
5772 5775 5775 5776 5776 5775 5775 5775 5775 5775 5775 5774 5774 5773 5773 5772 5771 5770 5769 5768 5767 5766 5764 5763 5761 5760 5758 5757 5755 5754 5753 5751 5750 5749 5747 5746 5744 5743 5741 5739 5738 5736 5735
5775 5775 5775 5775 5774 5774 5773 5773 5773 5773 5773 5773 5772 5771 5771 5770 5769 5768 5767 5767 5765 5764 5762 5761 5759 5757 5756 5755 5753 5752 5751 5750 5748 5747 5745 5744 5742 5741 5739 5738 5736 5735 5733
5776 5775 5774 5774 5773 5773 5772 5771 5771 5771 5771 5771 5770 5770 5769 5769 5767 5766 5765 5764 5763 5762 5761 5759 5757 5756 5754 5753 5751 5750 5749 5748 5746 5745 5743 5742 5741 5739 5738 5736 5735 5733 5731
5776 5774 5773 5772 5772 5771 5770 5769 5769 5769 5769 5768 5768 5768 5767 5766 5765 5764 5763 5762 5761 5760 5758 5757 5756 5754 5753 5751 5750 5749 5747 5746 5744 5743 5741 5740 5739 5738 5737 5735 5733 5731 5730
5775 5773 5772 5771 5770 5769 5768 5768 5767 5767 5766 5766 5766 5765 5765 5764 5763 5762 5761 5760 5759 5758 5757 5756 5755 5753 5752 5750 5749 5748 5746 5744 5743 5741 5740 5739 5738 5737 5735 5733 5731 5729 5728
5773 5772 5771 5770 5769 5768 5766 5766 5765 5765 5764 5764 5763 5763 5762 5762 5761 5760 5759 5758 5756 5755 5755 5754 5753 5752 5751 5749 5748 5747 5745 5743 5741 5740 5738 5737 5736 5735 5733 5732 5730 5728 5726
5772 5771 5770 5768 5767 5766 5765 5764 5763 5763 5762 5762 5761 5760 5760 5759 5758 5757 5756 5756 5754 5753 5753 5752 5752 5751 5750 5749 5747 5746 5744 5741 5739 5738 5736 5736 5735 5733 5732 5730 5728 5727 5725
5772 5770 5768 5767 5766 5765 5763 5762 5761 5760 5760 5760 5759 5758 5758 5757 5756 5755 5755 5754 5753 5752 5752 5752 5751 5750 5749 5748 5746 5744 5742 5740 5738 5736 5735 5734 5733 5732 5730 5728 5727 5725 5724
5771 5769 5767 5766 5765 5763 5762 5761 5760 5758 5758 5757 5757 5756 5756 5755 5754 5753 5753 5752 5751 5751 5750 5751 5751 5750 5748 5747 5745 5743 5741 5739 5737 5735 5734 5733 5732 5731 5729 5727 5726 5724 5722
5770 5768 5767 5765 5763 5762 5760 5759 5758 5757 5756 5756 5755 5754 5753 5753 5752 5751 5751 5750 5750 5749 5749 5749 5749 5748 5747 5745 5743 5742 5740 5738 5736 5734 5733 5732 5730 5729 5728 5726 5725 5723 5721
5769 5768 5766 5765 5763 5761 5760 5758 5757 5756 5755 5754 5753 5752 5751 5750 5750 5749 5749 5748 5748 5748 5747 5747 5747 5746 5745 5743 5742 5741 5739 5737 5735 5734 5732 5731 5730 5728 5727 5726 5724 5722 5721
5767 5767 5767 5765 5763 5761 5759 5757 5756 5754 5753 5752 5751 5750 5749 5748 5748 5747 5747 5746 5746 5746 5746 5746 5745 5744 5743 5742 5741 5739 5738 5736 5735 5733 5731 5730 5729 5728 5726 5725 5723 5722 5720
5770 5769 5768 5766 5763 5761 5759 5757 5755 5753 5752 5751 5749 5748 5748 5747 5746 5746 5745 5745 5744 5744 5744 5743 5743 5742 5742 5741 5740 5738 5737 5736 5734 5733 5731 5730 5729 5727 5726 5724 5723 5721 5719
5772 5771 5770 5767 5764 5762 5759 5757 5755 5753 5751 5750 5748 5747 5746 5745 5745 5744 5743 5743 5743 5742 5742 5741 5741 5741 5740 5740 5739 5738 5737 5736 5734 5733 5731 5730 5729 5727 5726 5724 5723 5721 5719
5774 5773 5771 5769 5766 5763 5760 5758 5755 5753 5751 5749 5748 5747 5746 5745 5743 5743 5742 5742 5742 5741 5740 5740 5740 5739 5739 5739 5738 5738 5737 5735 5734 5732 5731 5730 5729 5727 5726 5724 5723 5721 5719
5778 5775 5773 5771 5768 5765 5762 5759 5757 5754 5752 5749 5748 5747 5746 5744 5743 5743 5742 5741 5741 5740 5740 5739 5738 5738 5738 5738 5737 5736 5735 5734 5733 5732 5731 5730 5729 5727 5726 5725 5723 5722 5720
5781 5778 5775 5772 5769 5766 5763 5760 5758 5756 5753 5750 5748 5747 5745 5744 5743 5743 5741 5741 5740 5740 5739 5738 5738 5737 5737 5737 5736 5735 5735 5734 5733 5732 5731 5730 5729 5728 5727 5725 5724 5723 5721
5783 5779 5777 5775 5770 5767 5764 5762 5760 5757 5754 5751 5749 5747 5746 5745 5744 5742 5741 5740 5739 5739 5738 5737 5737 5736 5735 5735 5734 5734 5734 5733 5733 5732 5731 5730 5729 5729 5728 5726 5725 5724 5722
5785 5781 5778 5775 5772 5768 5765 5763 5760 5758 5755 5753 5751 5749 5747 5745 5744 5742 5741 5740 5739 5738 5737 5737 5735 5735 5733 5733 5733 5732 5732 5732 5732 5732 5731 5730 5730 5729 5728 5727 5726 5725 5723
5788 5783 5780 5777 5773 5770 5766 5762 5759 5757 5755 5753 5752 5750 5748 5746 5744 5743 5741 5740 5738 5737 5736 5736 5735 5734 5733 5732 5732 5731 5731 5731 5731 5731 5731 5731 5730 5729 5728 5727 5726 5725 5724
5788 5784 5781 5777 5774 5771 5766 5762 5758 5755 5755 5754 5752 5751 5749 5747 5745 5743 5741 5740 5739 5737 5736 5736 5734 5732 5731 5732 5729 5727 5729 5730 5731 5731 5731 5730 5730 5729 5728 5727 5726 5725 5724
5790 5787 5783 5779 5776 5772 5769 5766 5762 5758 5756 5754 5753 5751 5750 5748 5746 5744 5742 5740 5739 5738 5736 5736 5734 5732 5731 5731 5727 5723 5720 5723 5728 5731 5730 5730 5730 5729 5728 5728 5727 5726 5725
5792 5790 5787 5782 5778 5774 5771 5766 5762 5758 5755 5753 5752 5751 5750 5748 5746 5744 5742 5741 5740 5738 5737 5736 5735 5733 5730 5729 5729 5725 5718 5716 5721 5727 5729 5730 5730 5729 5729 5728 5728 5727 5726
5797 5794 5789 5785 5780 5776 5772 5767 5762 5756 5752 5752 5752 5751 5750 5748 5747 5745 5743 5742 5740 5739 5738 5737 5737 5735 5732 5728 5728 5728 5726 5724 5719 5719 5725 5728 5729 5729 5729 5729 5729 5728 5727
5799 5795 5790 5785 5780 5776 5772 5768 5763 5759 5756 5754 5753 5751 5750 5749 5748 5746 5744 5743 5741 5741 5740 5739 5737 5736 5734 5731 5729 5727 5725 5724 5723 5719 5718 5722 5726 5728 5729 5729 5729 5728 5728
5799 5795 5790 5785 5781 5777 5772 5768 5764 5760 5756 5753 5752 5750 5750 5749 5748 5747 5745 5744 5742 5741 5741 5740 5738 5737 5735 5733 5732 5730 5727 5724 5722 5720 5718 5720 5721 5726 5729 5729 5729 5729 5728